STARLINK-11193, 60195

Orbit data source: Space-Track

STARLINK-11193, 60195 is a payload satellite owned by SpaceX/Seattle (US) in LEO that was launched on Wed, 03 Jul 2024 UTC via an FALCON 9 launch vehicle from the Air Force Eastern Test Range (AFETR). Payloads include a variety of satellites, spacecraft, and rockets equipped with specific instruments for various scientific and technological missions. These include communications satellites like Starlink; space stations such as the ISS; scientific satellites like the Hubble; Earth observation satellites from companies like Planet Labs, Umbra, and HawkEye 360; GPS; miniature CubeSats for education and research; and military/defense satellites.

Loading next visibility...
STARLINK-11193 details
Identifier
60195, 2024-124N
Orbit
LEO
Last TLE update17 hours ago
Origin
Flag of USSpaceX/Seattle (US)
ManufacturerSpaceX/Seattle
MissionOperational spacecraft
Bus & MotorSTARLINK V2M, Unknown motor
Mass730 kg wet, ~700 kg dry
Launch date (UTC)
2024-07-03 (6 months ago)
Launch vehicle
FALCON 9
Launch site
Air Force Eastern Test Range (AFETR)
Object type
Payload
Rocket body
Debris
Shape & HBRUnknown
Radar Cross SectionLarge (>1 m²)

Expand to show TLE details & history

TLE from 17 hours ago
0 STARLINK-11193
1 60195U 24124N   24355.84582944 -.00004892  00000-0 -35575-4 0  9991
2 60195  53.1598 189.2202 0001233  69.3528 290.7622 15.69688107 28010
Epoch: 2024-12-20T20:17Z
Definitive object data (Epoch: 2024-12-20T20:17:59.663Z)
Latitude-0.00003°
Longitude154.81609°
Altitude360.41 km
Speed7.694 km/s
True Right ascension12h 36m 52s
True Declination0° 00' 00"
Sunlit
Object was in daylight at TLE epoch
Visualization TLE readout
Latitude42.71798°
Longitude-165.22452°
Altitude363.167 km
Speed7.697 km/s
Apparent Right ascension19h 46m 20s
Apparent Declination7° 30' 10"
Sunlit
Object is in daylight
Visualization observer readout
Local Sidereal Time12:23:09
Azimuth70.619° E
Elevation-10.733°
Doppler factor1
Orbital elements
Apogee altitude360.881 km
Perigee altitude359.219 km
Semi-major axis6,738.187 km
Eccentricity0.0001233
Inclination53.1598°
RAAN189.2202°
Arg. of periapsis69.3528°
True anomaly290.74899°
Mean anomaly290.7622°
Eccentric anomaly290.75559°
Mean motion3.924 °/min
BSTAR-0.000035575
Orbital period91.74 mins
Loading maneuver chart data...
Loading historical data...
Loading historical data...
Loading historical data...
Loading historical data...
Loading historical data...
Loading historical data...
Loading historical data...

STARLINK-11193 Visibility forecast

Observer location: undefined°, undefined

Span
Click to sort rows by Start time (UTC) header in descending order
Start Az.
Max El. time (UTC)
Max El. Az.
Max El.
End time (UTC)
End Az.
4 mins2024-12-21 16:23:12.108Z267.826° W2024-12-21 16:24:12.108Z299.015° NW30.425°2024-12-21 16:27:12.108Z34.965° NE
4 mins2024-12-21 22:48:12.108Z292.965° NW2024-12-21 22:49:12.108Z243.199° WSW41.296°2024-12-21 22:52:12.108Z141.028° SSE
|